DW2168 Weather Reports


Display with metric or nautical units.
time (UTC)temp
F
wind
direction
speed
MPH
gust
MPH
rain 1hr
in
rain 24hr
in
rain mn
in
humidity
%
barometer
mb
20260506123006 51 1 1.0 5.0 0.00 0.00 0.00 70 1013.5
20260506121006 51 1 0.0 3.0 0.00 0.00 0.00 68 1013.5
20260506120005 52 1 0.0 3.0 0.00 0.00 0.00 67 1013.5
20260506115005 51 1 1.0 5.0 0.00 0.00 0.00 67 1013.5
20260506114006 50 1 2.0 5.0 0.00 0.00 0.00 70 1013.5
20260506113006 51 1 2.0 6.0 0.00 0.00 0.00 67 1013.5
20260506112006 51 1 0.0 4.0 0.00 0.00 0.00 68 1013.4
20260506111006 51 1 1.0 4.0 0.00 0.00 0.00 67 1013.3
20260506110006 50 1 1.0 5.0 0.00 0.00 0.00 68 1013.2
20260506104006 52 1 0.0 3.0 0.00 0.00 0.00 64 1013.1
20260506103006 52 1 1.0 5.0 0.00 0.00 0.00 63 1013.1
20260506101005 51 1 1.0 6.0 0.00 0.00 0.00 64 1012.9
20260506100005 51 1 1.0 6.0 0.00 0.00 0.00 63 1012.8
20260506095005 51 1 1.0 5.0 0.00 0.00 0.00 63 1012.9
20260506094006 51 1 0.0 2.0 0.00 0.00 0.00 62 1012.9
20260506093005 52 1 0.0 2.0 0.00 0.00 0.00 62 1012.8
20260506090005 54 0 0.0 0.0 0.00 0.00 0.00 59 1012.4
20260506085006 55 0 0.0 0.0 0.00 0.00 0.00 55 1012.4
20260506084006 54 1 0.0 1.0 0.00 0.00 0.00 60 1012.3
20260506082005 58 1 0.0 3.0 0.00 0.00 0.00 54 1012.0
20260506081005 58 1 1.0 4.0 0.00 0.00 0.00 53 1011.9
20260506073005 59 1 2.0 6.0 0.00 0.00 0.00 51 1011.8
20260506072006 59 1 2.0 5.0 0.00 0.00 0.00 49 1011.8
20260506071006 59 1 2.0 6.0 0.00 0.00 0.00 49 1011.9
20260506062006 62 1 1.0 5.0 0.00 0.00 0.00 42 1011.8
20260506061006 62 1 1.0 5.0 0.00 0.00 0.00 43 1011.6
20260506051006 61 1 0.0 3.0 0.00 0.00 0.00 44 1011.4
20260506045006 62 1 1.0 4.0 0.00 0.00 0.00 43 1011.3
20260506043006 63 1 0.0 3.0 0.00 0.00 0.00 42 1011.2
20260506041006 67 1 0.0 2.0 0.00 0.00 0.00 38 1011.0
20260506040005 67 1 1.0 4.0 0.00 0.00 0.00 37 1010.9
20260506035007 68 1 1.0 4.0 0.00 0.00 0.00 37 1010.7
20260506034008 69 1 1.0 3.0 0.00 0.00 0.00 37 1010.7
20260506033007 69 1 0.0 3.0 0.00 0.00 0.00 36 1010.6
20260506032007 69 0 0.0 0.0 0.00 0.00 0.00 38 1010.5
20260506031006 71 0 0.0 0.0 0.00 0.00 0.00 37 1010.4
20260506025007 74 1 0.0 2.0 0.00 0.00 0.00 33 1010.4
20260506024007 75 1 1.0 4.0 0.00 0.00 0.00 30 1010.3
20260506023006 76 1 1.0 6.0 0.00 0.00 0.00 28 1010.4
20260506021007 78 1 2.0 5.0 0.00 0.00 0.00 26 1010.5
20260506020007 79 1 2.0 7.0 0.00 0.00 0.00 25 1010.5
20260506014007 79 1 1.0 4.0 0.00 0.00 0.00 25 1010.6
20260506013007 80 1 1.0 4.0 0.00 0.00 0.00 24 1010.7
20260506012007 80 1 2.0 7.0 0.00 0.00 0.00 25 1010.8
20260506011007 80 1 2.0 5.0 0.00 0.00 0.00 25 1011.0
20260506010007 79 1 2.0 7.0 0.00 0.00 0.00 26 1011.0
20260506005006 79 359 1.0 5.0 0.00 0.00 0.00 26 1011.2
20260506004007 80 1 3.0 7.0 0.00 0.00 0.00 25 1011.2
20260506003007 80 1 3.0 7.0 0.00 0.00 0.00 26 1011.3
20260506002006 80 1 1.0 5.0 0.00 0.00 0.00 25 1011.4
20260506001007 81 1 3.0 6.0 0.00 0.00 0.00 25 1011.5
20260505235007 80 1 4.0 10.0 0.00 0.00 0.00 25 1011.8
20260505234007 79 1 1.0 7.0 0.00 0.00 0.00 27 1011.9
20260505232007 80 1 4.0 9.0 0.00 0.00 0.00 25 1012.3
20260505231006 78 1 1.0 6.0 0.00 0.00 0.00 27 1012.4
20260505230007 78 359 2.0 6.0 0.00 0.00 0.00 28 1012.4
20260505225007 78 359 3.0 6.0 0.00 0.00 0.00 28 1012.6
20260505224007 78 1 3.0 6.0 0.00 0.00 0.00 29 1012.7
20260505223007 78 1 4.0 8.0 0.00 0.00 0.00 27 1013.0
20260505222007 78 1 3.0 7.0 0.00 0.00 0.00 27 1013.0
20260505221007 77 1 3.0 8.0 0.00 0.00 0.00 29 1013.1
20260505220007 76 1 3.0 10.0 0.00 0.00 0.00 28 1013.3
20260505215007 77 1 3.0 8.0 0.00 0.00 0.00 28 1013.5
20260505214007 76 1 4.0 8.0 0.00 0.00 0.00 28 1013.5
20260505213006 76 1 2.0 7.0 0.00 0.00 0.00 30 1013.6
20260505212007 76 1 2.0 8.0 0.00 0.00 0.00 29 1013.8
20260505210007 74 2 3.0 8.0 0.00 0.00 0.00 31 1014.1
20260505205007 74 1 3.0 8.0 0.00 0.00 0.00 30 1014.2
20260505204007 73 1 1.0 5.0 0.00 0.00 0.00 32 1014.3
20260505201007 72 1 3.0 8.0 0.00 0.00 0.00 31 1014.6
20260505195007 72 1 1.0 6.0 0.00 0.00 0.00 30 1015.0
20260505193007 69 1 1.0 5.0 0.00 0.00 0.00 31 1015.3
20260505192007 69 1 1.0 5.0 0.00 0.00 0.00 31 1015.4
20260505191007 69 1 1.0 6.0 0.00 0.00 0.00 32 1015.5
20260505190007 69 1 2.0 6.0 0.00 0.00 0.00 33 1015.6
20260505185007 67 1 2.0 5.0 0.00 0.00 0.00 32 1015.7
20260505184007 67 1 2.0 7.0 0.00 0.00 0.00 34 1015.8
20260505181006 65 1 0.0 3.0 0.00 0.00 0.00 36 1016.0
20260505180007 64 1 1.0 4.0 0.00 0.00 0.00 38 1016.1
20260505175007 64 1 2.0 6.0 0.00 0.00 0.00 40 1016.2
20260505174007 62 1 2.0 5.0 0.00 0.00 0.00 38 1016.2
20260505172008 61 1 2.0 6.0 0.00 0.00 0.00 42 1016.4
20260505171007 60 1 2.0 6.0 0.00 0.00 0.00 42 1016.5
20260505170007 59 1 2.0 6.0 0.00 0.00 0.00 44 1016.5
20260505163008 57 1 3.0 7.0 0.00 0.00 0.00 47 1016.6
20260505162006 57 1 2.0 7.0 0.00 0.00 0.00 49 1016.6
20260505161007 56 1 3.0 8.0 0.00 0.00 0.00 49 1016.6
20260505153006 53 1 4.0 7.0 0.00 0.00 0.00 53 1016.6
20260505151006 53 1 3.0 6.0 0.00 0.00 0.00 53 1016.7
20260505125007 46 0 0.0 0.0 0.00 0.00 0.00 65 1015.5